Location: Recife
(8.0585°S, 34.8848°W)
Time: 11:21:20
(UTC-03:00)

Courier 1B - Pass Details

Date: 23 April 2026
Orbit: 962 x 1209 km, 28.3° (Epoch: 15 May)

Event Time Altitude Azimuth Distance (km) Brightness Sun altitude
Exits shadow 02:11:17 17° 118° (ESE) 2,487 9.9 -47.2°
Drops below altitude 10° 02:12:45 10° 118° (ESE) 2,991 10.4 -46.8°
Sets 02:15:37 0° 118° (ESE) 3,987 11.2 -46.1°
